Regional Weather Roundup
Issued by NWS New Orleans/Baton Rouge, LA

Home | Current Version | Previous Version | Text Only | Print | Product List | Glossary On
Versions: 1 2 3 4 5 6 7 8 9 10 11 12 13 14 15 16 17 18 19 20 21 22 23 24 25 26 27 28 29 30 31 32 33 34 35 36 37 38 39 40 41 42 43 44 45 46 47 48 49 50
677
ASUS44 KLIX 020901
RWRLIX
NEW ORLEANS REGIONAL WEATHER ROUNDUP
NATIONAL WEATHER SERVICE NEW ORLEANS LA
400 AM CDT THU OCT 02 2014

NOTE: "FAIR" INDICATES FEW OR NO CLOUDS BELOW 12,000 FEET WITH NO
      SIGNIFICANT WEATHER AND/OR OBSTRUCTIONS TO VISIBILITY.
      SKY/WX - SKY CONDITION AND SIGNIFICANT WEATHER.
      TMP - AIR TEMPERATURE.     DP    - DEWPOINT TEMPERATURE.
      RH  - RELATIVE HUMIDITY.   PRES  - PRESSURE.
      HI  - HEAT INDEX.          WCI   - WIND CHILL INDEX.

*  THESE STATIONS ARE NOT NWS OR FAA STATIONS AND ARE NOT UNDER
   NWS QUALITY CONTROL.

LAZ038-040-048-061>063-065>067-069-021000-
SOUTHEAST LOUISIANA

CITY           SKY/WX    TMP DP  RH WIND       PRES   REMARKS
N.O. AUDUBON     N/A     79  78  97 MISG        N/A
N.O. INTL ARPT PTCLDY    76  75  97 SE5       29.93S
N.O. LAKEFRONT CLEAR     78  76  93 SE5       29.94S
N.O. DOWNTOWN*   N/A     79  73  83 SE6       29.94S
SLIDELL        CLOUDY    78  75  90 CALM      29.94S
BATON ROUGE    PTCLDY    75  73  93 NE3       29.92S
BOOTHVILLE     CLEAR     77  76  96 CALM      29.95S
BELLE CHASSE   PTCLDY    78  74  87 SE5       29.93S
BOGALUSA*      CLOUDY    77  73  87 SE5       29.96S
GALLIANO*      NOT AVBL
NEW ROADS*     PTSUNNY   75  74  97 CALM      29.92S
GONZALES*        N/A     74  74 100 CALM      29.92S
HAMMOND*       NOT AVBL
HOUMA*         CLEAR    N/A N/A N/A CALM      29.92S
PORT FOURCHON* SUNNY     81  75  83 SE6       29.96S

$$

MSZ070-080>082-021000-
SOUTHERN MISSISSIPPI

CITY           SKY/WX    TMP DP  RH WIND       PRES   REMARKS
MCCOMB         CLOUDY    76  74  93 S7        29.94S
GULFPORT       CLOUDY    79  75  87 SE6       29.95R
BILOXI         CLOUDY    80  76  89 S6        29.95S
PASCAGOULA     MOCLDY    72  71  97 NE3       29.96S

$$

COASTAL OBSERVATIONS
LAKE AND NEARSHORE STATIONS

STATION/POSITION TIME  TEMP    WIND        PRES    WAVE
                       AIR SEA DIR/SP/G            HT/PER
                 (UTC) (F)     (DEG/KT/KT) (MB)    (FT/S)
PASCAGOULA       0800   80     150/  3/  6 1013.9
WAVELAND YACHT   0800   80     160/  8/ 10 1013.4
GRAND ISLE       0800   80 81  160/  6/  8 1014.2
SOUTHWEST PASS   0800   80 85  130/  5/  7 1014.0
NEW CANAL        0800   78 77  150/  3/  7 1014.0
SHELL BEACH      0800   78 75  150/  6/  7 1013.7

OFFSHORE STATIONS

STATION/POSITION TIME  TEMP    WIND        PRES    WAVE
                       AIR SEA DIR/SP/G            HT/PER
                 (UTC) (F)     (DEG/KT/KT) (MB)    (FT/S)
64 S DAUPHIN ISL 0835   81 82  140/ 12/ 14 1014.5    2/ 3

$$




USA.gov is the U.S. government's official web portal to all federal, state and local government web resources and services.